Regional Weather Roundup
Issued by NWS

Home | Current Version | Previous Version | Graphics & Text | Print | Product List | Glossary Off
Versions: 1 2 3 4 5 6 7 8 9 10 11 12 13 14 15 16 17 18 19 20 21 22 23 24 25 26 27 28 29 30 31 32 33 34 35 36 37 38 39 40 41 42 43 44 45 46 47 48 49 50

000
ASUS43 KMKX 020311
RWRWI

WISCONSIN REGIONAL WEATHER ROUNDUP
NATIONAL WEATHER SERVICE MILWAUKEE/SULLIVAN WI
1000 PM CDT SUN MAY 01 2016

NOTE: "FAIR" INDICATES FEW OR NO CLOUDS BELOW 12,000 FEET WITH NO
SIGNIFICANT WEATHER AND/OR OBSTRUCTIONS TO VISIBILITY.

WIZ001-002-006>008-014>016-023>028-020400-
NORTHWEST WISCONSIN

CITY           SKY/WX    TMP DP  RH WIND       PRES   REMARKS
SUPERIOR ARPT  CLEAR     35  34  97 CALM      30.18S
ASHLAND        CLEAR     33  33 100 NW3       30.17S
HAYWARD        CLEAR     42  32  67 CALM      30.15S
SIREN          CLEAR     49  34  56 CALM      30.14S
CUMBERLAND     CLEAR     48  30  49 NE10      30.12F
RICE LAKE      CLEAR     50  33  52 N10       30.13S
CHETEK         MOCLDY    52  35  52 N7        30.11S
LADYSMITH      CLEAR     49  35  57 N10       30.13S
EAU CLAIRE     CLOUDY    56  34  43 N8        30.08R
MENOMONIE      PTCLDY    54  36  51 N7        30.09S
NEW RICHMOND   CLEAR     51  33  50 NE9       30.11S
OSCEOLA        CLEAR     52  33  48 N7        30.15S
$$

WIZ003>005-009-010-017-018-020400-
NORTH CENTRAL WISCONSIN

CITY           SKY/WX    TMP DP  RH WIND       PRES   REMARKS
MANITOWISH WTR CLEAR     44  33  65 N3        30.13S
ARBOR VITAE    CLEAR     49  35  58 NE8       30.13S
WOODRUFF       CLEAR     49  35  58 NE8       30.13S
RHINELANDER    PTCLDY    51  30  44 CALM      30.12R
EAGLE RIVER    CLEAR     45  30  55 NE5       30.13R
LAND O LAKES   CLEAR     46  31  57 N6        30.14S
PHILLIPS       CLEAR     47  35  62 N7        30.12R
TOMAHAWK       CLOUDY    52  32  46 NE5       30.11S
MEDFORD        CLOUDY    50  37  59 CALM      30.10R
MERRILL        CLOUDY    51  33  49 SE3       30.12R
$$

WIZ029-030-035-036-043>047-020400-
CENTRAL WISCONSIN

CITY           SKY/WX    TMP DP  RH WIND       PRES   REMARKS
WAUSAU         MOCLDY    50  33  52 E7        30.09R
MOSINEE        MOCLDY    46  32  57 E7        30.11R
MARSHFIELD     CLEAR     49  34  56 CALM      30.09S
STEVENS POINT  CLEAR     43  32  64 NE3       30.10F
WAUPACA        CLEAR     49  38  67 N5        30.10S
WAUTOMA        PTCLDY    48  38  68 N5        30.09S
WISC RAPIDS    CLEAR     45  33  63 CALM      30.11R
CAMP DOUGLAS   CLEAR     48  38  68 N5        30.08S
$$

WIZ011>013-019>022-031-037>040-048>050-020400-
NORTHEAST WISCONSIN

CITY           SKY/WX    TMP DP  RH WIND       PRES   REMARKS
ANTIGO         PTCLDY    45  34  66 CALM      30.11S
SHAWANO        CLEAR     49  39  69 CALM      30.11S
OCONTO         CLEAR     41  40  97 CALM      30.10F
STURGEON BAY   CLEAR     43  34  70 N3        30.12F
GREEN BAY      PTCLDY    48  39  71 NE8       30.09F
MANITOWOC      CLOUDY    48  36  63 NE6       30.08S
APPLETON       PTCLDY    46  37  71 NE7       30.07S
CLINTONVILLE   CLEAR     46  36  66 N3        30.10S
OSHKOSH        CLOUDY    49  40  71 NE10      30.08R
$$

WIZ032>034-041-042-053>061-020400-
SOUTHWEST WISCONSIN

CITY           SKY/WX    TMP DP  RH WIND       PRES   REMARKS
LA CROSSE      CLEAR     48  40  73 CALM      30.07S
SPARTA         CLEAR     47  36  65 E3        30.09S
VIROQUA        CLEAR     45  45 100 CALM      30.07S
BOSCOBEL       FOG       43  41  93 CALM      30.07S VSB 1/4
PRAIRIE DU CHI CLEAR     44  42  91 CALM      30.07R
PLATTEVILLE    MOCLDY    48  44  85 NE7       30.03F
$$

WIZ056-057-062-063-064-067-068-020400-
SOUTH CENTRAL WISCONSIN

CITY           SKY/WX    TMP DP  RH WIND       PRES   REMARKS
REEDSBURG      CLEAR     48  37  64 NE5       30.06S
BARABOO/DELLS  CLEAR     47  38  72 NE6       30.07S
LONE ROCK      CLOUDY    46  43  89 CALM      30.07S
MINERAL POINT  PTCLDY    50  41  71 NE8       30.04S
MADISON        CLOUDY    49  41  74 N9        30.05S
MIDDLETON      CLOUDY    50  43  77 NE12      30.05F
WATERTOWN      CLOUDY    47  45  93 NE10      30.05S
MONROE         CLOUDY    46  43  87 NE14      30.03S
JANESVILLE     NOT AVBL
$$

WIZ051-052-058>065-066-070>072-020400-
SOUTHEAST WISCONSIN

CITY           SKY/WX    TMP DP  RH WIND       PRES   REMARKS
MILWAUKEE      CLOUDY    45  43  93 NE14      30.04R
WAUKESHA       LGT RAIN  45  43  93 NE10G16   30.06R
MILWAUKEE/TIMM CLOUDY    45  41  87 NE10G17   30.06R
RACINE         CLOUDY    45  42  89 N12       30.05R
BURLINGTON     DRIZZLE   45  44  98 NE10      30.04R
KENOSHA        RAIN      46  43  89 N9        30.04R FOG
FOND DU LAC    CLOUDY    49  40  71 NE9       30.09R
SHEBOYGAN      CLOUDY    47  37  68 NE13      30.07R
WEST BEND      CLOUDY    43  41  93 N7        30.06S
JUNEAU         CLOUDY    47  42  82 NE8       30.07F
$$

LSZ147-162-020400-
LAKE SUPERIOR

STATION/POSITION TIME  TEMP    WIND        PRES    WAVE
                       AIR SEA DIR/SP/G            HT/PER
                 (UTC) (F)     (DEG/KT/KT) (MB)    (FT/S)
W MID LAKE BUOY  0250   37 37  360/  4/  4 1022.4R   2/ 5
DEVILS ISLAND    0300   39      10/  6/  7 1022.6F
SAXON HARBOR     0200   36     200/  2/  2 1021.0F
$$

LMZ867-665-643>646-020400-
LAKE MICHIGAN

STATION/POSITION TIME  TEMP    WIND        PRES    WAVE
                       AIR SEA DIR/SP/G            HT/PER
                 (UTC) (F)     (DEG/KT/KT) (MB)    (FT/S)
CHAMBERS ISLAND  0200   42        CALM     1019.6
N MID LAKE BUOY  0250   42 38  330/ 10/ 12 1019.4F   0
NORTHPORT PIER   0200   45     310/  5/  6 1019.6
KEWAUNEE LAKESHO 0200   46      20/ 10/ 13 1018.2S
SHEBOYGAN LAKESH 0300   43      10/  9/ 11 1018.9R
PORT WASHINGTON  0200   46     360/  6/ 11 1018.3
S MID LAKE BUOY  0250   44 40   50/ 10/ 10 1016.2R   2/ 5
KENOSHA   LAKESH 0300   45      10/ 14/ 18 1017.3R
$$

TC  - TEMPERATURE IN CELSIUS
VSB - VISIBILITY IN STATUTE MILES
WCI - WIND CHILL INDEX
HX  - HEAT INDEX




USA.gov is the U.S. government's official web portal to all federal, state and local government web resources and services.